Volver al catálogo

SL-16 DEB

ActivoLEO
NORAD 39881·DEBRIS·🇷🇺 Russia

Lanzado Mar 26, 1993 desde Baikonur Cosmodrome

Loading…

Próximos Pases (próximas 24 horas)

TLE

EnvejeciendoSource: Space-Track

Época: Sep 10, 2026, 04:28 UTC

1 39881U 93016BF  26253.18679990  .00001776  00000-0  97728-3 0  9992
2 39881  70.9869  51.5404 0116925 216.9782 142.3239 14.09580324609508

Sigue SL-16 DEB en tiempo real con AllMySat

Download on the App Store